Time,TemperatureF,DewpointF,PressureIn,WindDirection,WindDirectionDegrees,WindSpeedMPH,WindSpeedGustMPH,Humidity,HourlyPrecipIn,Conditions,Clouds,dailyrainin,SolarRadiationWatts/m^2,SoftwareType,DateUTC
2013-02-05 00:00:00,47.8,45.0,30.11,ENE,76,0.0,0.0,89,0.00,,,0.00,0,weatherlink.com 1.10,2013-02-05 08:00:00,
2013-02-05 00:15:00,47.7,45.0,30.11,ENE,76,0.0,1.0,89,0.00,,,0.00,0,weatherlink.com 1.10,2013-02-05 08:15:00,
2013-02-05 00:30:00,47.6,45.0,30.11,SE,145,2.0,4.0,89,0.00,,,0.00,0,weatherlink.com 1.10,2013-02-05 08:30:00,
2013-02-05 00:45:00,47.5,44.0,30.10,SSE,157,0.0,1.0,88,0.00,,,0.00,0,weatherlink.com 1.10,2013-02-05 08:45:00,
2013-02-05 01:00:00,47.4,44.0,30.10,SSE,161,1.0,3.0,88,0.00,,,0.00,0,weatherlink.com 1.10,2013-02-05 09:00:00,
2013-02-05 01:15:00,47.4,44.0,30.10,SSE,161,0.0,1.0,88,0.00,,,0.00,0,weatherlink.com 1.10,2013-02-05 09:15:00,
2013-02-05 01:30:00,47.1,44.0,30.11,NNE,17,0.0,2.0,88,0.00,,,0.00,0,weatherlink.com 1.10,2013-02-05 09:30:00,
2013-02-05 01:45:00,46.9,44.0,30.10,North,5,0.0,4.0,88,0.00,,,0.00,0,weatherlink.com 1.10,2013-02-05 09:45:00,
2013-02-05 02:00:00,46.8,44.0,30.11,North,360,1.0,2.0,88,0.00,,,0.00,0,weatherlink.com 1.10,2013-02-05 10:00:00,
2013-02-05 02:15:00,46.7,44.0,30.10,ENE,78,0.0,1.0,89,0.00,,,0.00,0,weatherlink.com 1.10,2013-02-05 10:15:00,
2013-02-05 02:30:00,46.7,44.0,30.10,NE,51,0.0,2.0,89,0.00,,,0.00,0,weatherlink.com 1.10,2013-02-05 10:30:00,
2013-02-05 02:45:00,46.7,44.0,30.10,North,9,0.0,1.0,89,0.00,,,0.00,0,weatherlink.com 1.10,2013-02-05 10:45:00,
2013-02-05 03:00:00,46.6,43.0,30.09,North,9,0.0,0.0,88,0.00,,,0.00,0,weatherlink.com 1.10,2013-02-05 11:00:00,
2013-02-05 03:15:00,46.3,43.0,30.09,North,9,0.0,0.0,88,0.00,,,0.00,0,weatherlink.com 1.10,2013-02-05 11:15:00,
2013-02-05 03:30:00,46.3,43.0,30.09,North,9,0.0,0.0,88,0.00,,,0.00,0,weatherlink.com 1.10,2013-02-05 11:30:00,
2013-02-05 03:45:00,46.3,43.0,30.09,North,9,0.0,0.0,87,0.00,,,0.00,0,weatherlink.com 1.10,2013-02-05 11:45:00,
2013-02-05 04:00:00,46.3,43.0,30.09,North,9,0.0,1.0,87,0.00,,,0.00,0,weatherlink.com 1.10,2013-02-05 12:00:00,
2013-02-05 04:15:00,46.5,43.0,30.09,SSW,203,0.0,1.0,87,0.00,,,0.00,0,weatherlink.com 1.10,2013-02-05 12:15:00,
2013-02-05 04:30:00,46.5,43.0,30.09,SSW,204,0.0,2.0,86,0.00,,,0.00,0,weatherlink.com 1.10,2013-02-05 12:30:00,
2013-02-05 04:45:00,46.6,43.0,30.09,SSE,161,0.0,2.0,86,0.00,,,0.00,0,weatherlink.com 1.10,2013-02-05 12:45:00,
2013-02-05 05:00:00,46.6,43.0,30.09,SSE,161,0.0,2.0,86,0.00,,,0.00,0,weatherlink.com 1.10,2013-02-05 13:00:00,
2013-02-05 05:15:00,46.4,42.0,30.08,ENE,67,1.0,2.0,85,0.00,,,0.00,0,weatherlink.com 1.10,2013-02-05 13:15:00,
2013-02-05 05:31:00,46.4,42.0,30.08,ENE,65,0.0,1.0,85,0.00,,,0.00,0,weatherlink.com 1.10,2013-02-05 13:31:00,
2013-02-05 05:46:00,46.4,42.0,30.08,SE,131,0.0,2.0,85,0.00,,,0.00,0,weatherlink.com 1.10,2013-02-05 13:46:00,
2013-02-05 06:01:00,46.5,42.0,30.08,SE,131,0.0,1.0,85,0.00,,,0.00,0,weatherlink.com 1.10,2013-02-05 14:01:00,
2013-02-05 06:16:00,46.5,42.0,30.09,SSW,213,0.0,2.0,84,0.00,,,0.00,0,weatherlink.com 1.10,2013-02-05 14:16:00,
2013-02-05 06:31:00,46.6,42.0,30.09,SSW,213,0.0,0.0,84,0.00,,,0.00,0,weatherlink.com 1.10,2013-02-05 14:31:00,
2013-02-05 06:46:00,46.6,42.0,30.09,SSW,213,1.0,2.0,84,0.00,,,0.00,0,weatherlink.com 1.10,2013-02-05 14:46:00,
2013-02-05 07:01:00,46.8,42.0,30.09,SW,218,1.0,3.0,84,0.00,,,0.00,0,weatherlink.com 1.10,2013-02-05 15:01:00,
2013-02-05 07:16:00,47.0,42.0,30.09,SW,218,0.0,2.0,83,0.00,,,0.00,0,weatherlink.com 1.10,2013-02-05 15:16:00,
2013-02-05 07:31:00,47.0,42.0,30.09,SSW,210,1.0,3.0,82,0.00,,,0.00,21,weatherlink.com 1.10,2013-02-05 15:31:00,
2013-02-05 07:46:00,47.2,42.0,30.09,SSW,198,2.0,4.0,82,0.00,,,0.00,32,weatherlink.com 1.10,2013-02-05 15:46:00,
2013-02-05 08:01:00,47.3,42.0,30.10,SSW,207,0.0,2.0,81,0.00,,,0.00,113,weatherlink.com 1.10,2013-02-05 16:01:00,
2013-02-05 08:16:00,47.8,42.0,30.10,SSE,161,1.0,5.0,80,0.00,,,0.00,77,weatherlink.com 1.10,2013-02-05 16:16:00,
2013-02-05 08:31:00,48.1,42.0,30.11,SSW,212,1.0,3.0,79,0.00,,,0.00,109,weatherlink.com 1.10,2013-02-05 16:31:00,
2013-02-05 08:46:00,48.3,42.0,30.10,SW,226,0.0,3.0,79,0.00,,,0.00,113,weatherlink.com 1.10,2013-02-05 16:46:00,
2013-02-05 09:01:00,48.8,43.0,30.11,SSW,196,0.0,3.0,79,0.00,,,0.00,192,weatherlink.com 1.10,2013-02-05 17:01:00,
2013-02-05 09:16:00,49.7,43.0,30.11,SSW,209,1.0,2.0,78,0.00,,,0.00,267,weatherlink.com 1.10,2013-02-05 17:16:00,
2013-02-05 09:31:00,50.3,43.0,30.11,North,9,1.0,3.0,76,0.00,,,0.00,220,weatherlink.com 1.10,2013-02-05 17:31:00,
2013-02-05 09:46:00,50.0,43.0,30.11,North,355,0.0,4.0,76,0.00,,,0.00,197,weatherlink.com 1.10,2013-02-05 17:46:00,
2013-02-05 10:01:00,49.9,43.0,30.12,NNE,13,0.0,2.0,77,0.00,,,0.00,213,weatherlink.com 1.10,2013-02-05 18:01:00,
2013-02-05 10:16:00,50.1,44.0,30.12,NNE,14,0.0,3.0,79,0.00,,,0.00,278,weatherlink.com 1.10,2013-02-05 18:16:00,
2013-02-05 10:31:00,51.1,44.0,30.12,NNE,21,0.0,2.0,77,0.00,,,0.00,274,weatherlink.com 1.10,2013-02-05 18:31:00,
2013-02-05 10:46:00,52.0,45.0,30.12,NNE,21,0.0,2.0,76,0.00,,,0.00,406,weatherlink.com 1.10,2013-02-05 18:46:00,
2013-02-05 11:01:00,52.9,45.0,30.11,West,260,1.0,4.0,74,0.00,,,0.00,399,weatherlink.com 1.10,2013-02-05 19:01:00,
2013-02-05 11:16:00,53.8,45.0,30.11,WSW,241,2.0,2.0,73,0.00,,,0.00,264,weatherlink.com 1.10,2013-02-05 19:16:00,
2013-02-05 11:31:00,53.7,45.0,30.11,SE,132,4.0,5.0,72,0.00,,,0.00,366,weatherlink.com 1.10,2013-02-05 19:31:00,
2013-02-05 11:46:00,52.9,44.0,30.11,SSE,155,4.0,5.0,73,0.00,,,0.00,353,weatherlink.com 1.10,2013-02-05 19:46:00,
2013-02-05 12:01:00,52.2,45.0,30.11,SSE,148,2.0,6.0,75,0.00,,,0.00,267,weatherlink.com 1.10,2013-02-05 20:01:00,
2013-02-05 12:16:00,52.2,46.0,30.10,SSE,157,2.0,6.0,78,0.00,,,0.00,179,weatherlink.com 1.10,2013-02-05 20:16:00,
2013-02-05 12:31:00,52.0,46.0,30.10,SSE,164,5.0,5.0,79,0.00,,,0.00,276,weatherlink.com 1.10,2013-02-05 20:31:00,
2013-02-05 12:46:00,52.5,46.0,30.09,SE,133,3.0,8.0,79,0.00,,,0.00,281,weatherlink.com 1.10,2013-02-05 20:46:00,
2013-02-05 13:01:00,53.3,46.0,30.08,SSW,200,1.0,4.0,77,0.00,,,0.00,216,weatherlink.com 1.10,2013-02-05 21:01:00,
2013-02-05 13:16:00,54.3,47.0,30.08,South,176,1.0,2.0,75,0.00,,,0.00,269,weatherlink.com 1.10,2013-02-05 21:16:00,
2013-02-05 13:32:00,55.8,47.0,30.08,SW,222,1.0,4.0,73,0.00,,,0.00,241,weatherlink.com 1.10,2013-02-05 21:32:00,
2013-02-05 13:47:00,55.1,47.0,30.07,SSE,154,5.0,8.0,74,0.00,,,0.00,339,weatherlink.com 1.10,2013-02-05 21:47:00,
2013-02-05 14:02:00,55.3,48.0,30.07,SW,230,2.0,4.0,75,0.00,,,0.00,211,weatherlink.com 1.10,2013-02-05 22:02:00,
2013-02-05 14:17:00,55.8,48.0,30.07,SW,219,0.0,4.0,74,0.00,,,0.00,269,weatherlink.com 1.10,2013-02-05 22:17:00,
2013-02-05 14:32:00,57.0,48.0,30.07,West,268,2.0,5.0,72,0.00,,,0.00,192,weatherlink.com 1.10,2013-02-05 22:32:00,
2013-02-05 14:47:00,56.6,47.0,30.07,North,5,2.0,5.0,70,0.00,,,0.00,155,weatherlink.com 1.10,2013-02-05 22:47:00,
2013-02-05 15:02:00,57.1,47.0,30.07,SSW,210,1.0,6.0,70,0.00,,,0.00,190,weatherlink.com 1.10,2013-02-05 23:02:00,
2013-02-05 15:17:00,57.8,48.0,30.07,North,5,1.0,4.0,69,0.00,,,0.00,448,weatherlink.com 1.10,2013-02-05 23:17:00,
2013-02-05 15:32:00,59.4,48.0,30.07,North,11,0.0,5.0,67,0.00,,,0.00,397,weatherlink.com 1.10,2013-02-05 23:32:00,
2013-02-05 15:47:00,59.6,48.0,30.08,SSW,196,1.0,4.0,66,0.00,,,0.00,360,weatherlink.com 1.10,2013-02-05 23:47:00,
2013-02-05 16:02:00,59.2,48.0,30.08,SW,217,0.0,4.0,67,0.00,,,0.00,345,weatherlink.com 1.10,2013-02-06 00:02:00,
2013-02-05 16:17:00,59.1,48.0,30.09,WSW,252,1.0,2.0,67,0.00,,,0.00,139,weatherlink.com 1.10,2013-02-06 00:17:00,
2013-02-05 16:32:00,58.5,48.0,30.09,NE,38,0.0,3.0,69,0.00,,,0.00,234,weatherlink.com 1.10,2013-02-06 00:32:00,
2013-02-05 16:47:00,59.2,48.0,30.09,West,277,0.0,3.0,67,0.00,,,0.00,178,weatherlink.com 1.10,2013-02-06 00:47:00,
2013-02-05 17:02:00,58.8,48.0,30.09,NE,54,1.0,2.0,67,0.00,,,0.00,113,weatherlink.com 1.10,2013-02-06 01:02:00,
2013-02-05 17:17:00,57.5,47.0,30.09,North,360,0.0,4.0,69,0.00,,,0.00,37,weatherlink.com 1.10,2013-02-06 01:17:00,
2013-02-05 17:32:00,56.2,47.0,30.09,WSW,242,0.0,2.0,72,0.00,,,0.00,12,weatherlink.com 1.10,2013-02-06 01:32:00,
2013-02-05 17:47:00,54.5,47.0,30.09,NNE,14,1.0,4.0,75,0.00,,,0.00,0,weatherlink.com 1.10,2013-02-06 01:47:00,
2013-02-05 18:02:00,53.3,47.0,30.09,NNW,338,1.0,2.0,79,0.00,,,0.00,0,weatherlink.com 1.10,2013-02-06 02:02:00,
2013-02-05 18:17:00,52.5,47.0,30.09,NNE,23,0.0,1.0,80,0.00,,,0.00,0,weatherlink.com 1.10,2013-02-06 02:17:00,
2013-02-05 18:32:00,51.7,46.0,30.09,NE,42,0.0,2.0,82,0.00,,,0.00,0,weatherlink.com 1.10,2013-02-06 02:32:00,
2013-02-05 18:47:00,51.2,46.0,30.09,NE,42,0.0,1.0,83,0.00,,,0.00,0,weatherlink.com 1.10,2013-02-06 02:47:00,
2013-02-05 19:02:00,50.5,46.0,30.10,NE,42,0.0,1.0,84,0.00,,,0.00,0,weatherlink.com 1.10,2013-02-06 03:02:00,
2013-02-05 19:17:00,50.3,46.0,30.11,South,186,0.0,2.0,85,0.00,,,0.00,0,weatherlink.com 1.10,2013-02-06 03:17:00,
2013-02-05 19:32:00,49.9,46.0,30.11,SW,221,0.0,2.0,85,0.00,,,0.00,0,weatherlink.com 1.10,2013-02-06 03:32:00,
2013-02-05 19:47:00,49.2,45.0,30.11,SW,221,0.0,1.0,86,0.00,,,0.00,0,weatherlink.com 1.10,2013-02-06 03:47:00,
2013-02-05 20:02:00,48.8,45.0,30.11,North,351,0.0,1.0,86,0.00,,,0.00,0,weatherlink.com 1.10,2013-02-06 04:02:00,
2013-02-05 20:17:00,48.3,45.0,30.12,North,351,0.0,1.0,87,0.00,,,0.00,0,weatherlink.com 1.10,2013-02-06 04:17:00,
2013-02-05 20:32:00,48.0,44.0,30.12,NNE,19,0.0,2.0,87,0.00,,,0.00,0,weatherlink.com 1.10,2013-02-06 04:32:00,
2013-02-05 20:47:00,47.6,44.0,30.12,NNE,17,0.0,0.0,88,0.00,,,0.00,0,weatherlink.com 1.10,2013-02-06 04:47:00,
2013-02-05 21:02:00,47.1,44.0,30.13,NNE,17,0.0,0.0,88,0.00,,,0.00,0,weatherlink.com 1.10,2013-02-06 05:02:00,
2013-02-05 21:17:00,46.5,43.0,30.13,NNE,17,0.0,0.0,88,0.00,,,0.00,0,weatherlink.com 1.10,2013-02-06 05:17:00,
2013-02-05 21:32:00,46.3,43.0,30.13,NNE,17,1.0,2.0,89,0.00,,,0.00,0,weatherlink.com 1.10,2013-02-06 05:32:00,
2013-02-05 21:47:00,46.0,43.0,30.14,NNE,17,0.0,0.0,89,0.00,,,0.00,0,weatherlink.com 1.10,2013-02-06 05:47:00,
2013-02-05 22:02:00,45.5,43.0,30.14,NNE,17,0.0,1.0,90,0.00,,,0.00,0,weatherlink.com 1.10,2013-02-06 06:02:00,
2013-02-05 22:17:00,45.4,43.0,30.14,NNE,17,0.0,2.0,90,0.00,,,0.00,0,weatherlink.com 1.10,2013-02-06 06:17:00,
2013-02-05 22:32:00,45.9,42.0,30.15,NNE,17,0.0,1.0,87,0.00,,,0.00,0,weatherlink.com 1.10,2013-02-06 06:32:00,
2013-02-05 22:47:00,45.2,41.0,30.15,NNE,17,0.0,0.0,86,0.00,,,0.00,0,weatherlink.com 1.10,2013-02-06 06:47:00,
2013-02-05 23:02:00,44.6,41.0,30.14,NNE,17,0.0,1.0,87,0.00,,,0.00,0,weatherlink.com 1.10,2013-02-06 07:02:00,
2013-02-05 23:17:00,44.6,41.0,30.15,NNE,23,0.0,3.0,88,0.00,,,0.00,0,weatherlink.com 1.10,2013-02-06 07:17:00,
2013-02-05 23:32:00,44.9,42.0,30.16,North,360,0.0,2.0,88,0.00,,,0.00,0,weatherlink.com 1.10,2013-02-06 07:32:00,
2013-02-05 23:47:00,45.0,41.0,30.16,North,5,0.0,2.0,87,0.00,,,0.00,0,weatherlink.com 1.10,2013-02-06 07:47:00,